Weather History for KBUY - January, 2013

Change the Weather History Date:

Monday, January 14, 2013

  Actual Average Record
Temperature  
Mean Temperature 60 °F -  
Max Temperature 64 °F 47 °F 34 °F (2015)
Min Temperature 53 °F 26 °F 27 °F (2015)
Degree Days  
Heating Degree Days 4    
Growing Degree Days 10 (Base 50)    
Moisture  
Dew Point 60 °F    
Average Humidity 93    
Maximum Humidity 100    
Minimum Humidity 81    
Precipitation  
Precipitation 0.47 in - - ()
Sea Level Pressure  
Sea Level Pressure 30.11 in    
Wind  
Wind Speed 3 mph (SSW)    
Max Wind Speed 13 mph    
Max Gust Speed 16 mph    
Visibility 5 miles    
Events Rain    
Averages and records for this station are not official NWS values.
T = Trace of Precipitation, MM = Missing Value Source: NWS Daily Summary

Daily Weather History Graph

Daily Weather History Graph

Search for Another Location

Airport or City:

Trip Planner

Search our weather history database for the weather conditions in past years. The results will help you decide how hot, cold, wet, or windy it might be!

Date:

Astronomy

Jan. 14, 2013 Rise Set
Actual Time 7:28 AM EST 5:26 PM EST
Civil Twilight 7:00 AM EST 5:54 PM EST
Nautical Twilight 6:28 AM EST 6:25 PM EST
Astronomical Twilight 5:57 AM EST 6:56 PM EST
Moon 9:08 AM EST (1/14) 9:01 PM EST (1/14)
Length of Visible Light 10h 54m
Length of Day
9h 58m
Waxing Crescent, 11% of the Moon is Illuminated
Jan 14
Waxing Crescent
Jan 18
First Quarter
Jan 26
Full
Feb 3
Last Quarter
Feb 10
New

Hourly Weather History & Observations

Time (EST) Temp. Dew Point Humidity Pressure Visibility Wind Dir Wind Speed Gust Speed Precip Events Conditions
1:54 AM 62.1 °F 57.9 °F 86% 30.08 in 10.0 mi SSW 4.6 mph - N/A   Clear
2:54 AM 62.1 °F 57.9 °F 86% 30.09 in 10.0 mi South 3.5 mph - N/A   Clear
3:54 AM 62.1 °F 57.9 °F 86% 30.08 in 10.0 mi South 4.6 mph - N/A   Overcast
5:54 AM 61.0 °F 57.9 °F 90% 30.07 in 10.0 mi Calm Calm - N/A   Overcast
6:54 AM 61.0 °F 57.0 °F 87% 30.08 in 10.0 mi Calm Calm - 0.00 in   Overcast
7:54 AM 61.0 °F 57.0 °F 87% 30.10 in 10.0 mi Calm Calm - N/A   Mostly Cloudy
8:54 AM 62.1 °F 57.0 °F 84% 30.12 in 10.0 mi South 4.6 mph - 0.00 in   Overcast
9:54 AM 63.0 °F 57.0 °F 81% 30.13 in 10.0 mi South 5.8 mph - 0.00 in Rain Light Rain
10:54 AM 62.1 °F 59.0 °F 90% 30.12 in 2.5 mi Calm Calm - 0.04 in Rain Light Rain
11:01 AM 62.6 °F 59.0 °F 88% 30.12 in 4.0 mi Calm Calm - 0.00 in Rain Light Rain
11:54 AM 63.0 °F 60.1 °F 90% 30.09 in 10.0 mi Calm Calm - 0.00 in   Overcast
12:36 PM 62.6 °F 60.8 °F 94% 30.10 in 1.8 mi SSW 4.6 mph - 0.05 in Rain Heavy Rain
12:50 PM 62.6 °F 60.8 °F 94% 30.09 in 0.8 mi SSW 4.6 mph - 0.17 in Rain Heavy Rain
12:54 PM 63.0 °F 61.0 °F 93% 30.08 in 1.2 mi South 3.5 mph - 0.18 in Rain Rain
1:04 PM 62.6 °F 60.8 °F 94% 30.09 in 2.0 mi SSW 4.6 mph - 0.03 in Rain Rain
1:11 PM 62.6 °F 60.8 °F 94% 30.09 in 1.8 mi SSW 3.5 mph - 0.05 in Rain Rain
1:35 PM 62.6 °F 60.8 °F 94% 30.08 in 2.0 mi SSW 3.5 mph - 0.16 in Rain Light Rain
1:37 PM 62.6 °F 60.8 °F 94% 30.08 in 3.0 mi Calm Calm - 0.16 in Rain Light Rain
1:54 PM 63.0 °F 62.1 °F 97% 30.07 in 6.0 mi Calm Calm - 0.16 in Rain Light Rain
2:54 PM 64.0 °F 62.1 °F 93% 30.08 in 7.0 mi South 3.5 mph - 0.01 in   Overcast
3:17 PM 64.4 °F 62.6 °F 94% 30.09 in 6.0 mi Calm Calm - N/A   Overcast
3:54 PM 64.0 °F 63.0 °F 96% 30.10 in 4.0 mi South 3.5 mph - 0.02 in Rain Light Rain
4:02 PM 64.4 °F 62.6 °F 94% 30.11 in 4.0 mi South 3.5 mph - 0.00 in Rain Light Rain
4:10 PM 64.4 °F 62.6 °F 94% 30.11 in 6.0 mi South 3.5 mph - 0.00 in Rain Light Rain
4:46 PM 62.6 °F 62.6 °F 100% 30.12 in 4.0 mi Calm Calm - 0.01 in Rain Light Rain
5:06 PM 62.6 °F 62.6 °F 100% 30.13 in 4.0 mi Calm Calm - 0.00 in Rain Light Rain
5:21 PM 62.6 °F 62.6 °F 100% 30.12 in 2.5 mi Calm Calm - 0.00 in   Overcast
5:47 PM 62.6 °F 60.8 °F 94% 30.12 in 0.8 mi Calm Calm - 0.00 in   Overcast
5:54 PM 62.1 °F 61.0 °F 96% 30.12 in 1.0 mi Calm Calm - 0.00 in Rain Light Rain
6:14 PM 62.6 °F 62.6 °F 100% 30.12 in 2.5 mi Calm Calm - 0.01 in Rain Rain
6:30 PM 62.6 °F 60.8 °F 94% 30.12 in 0.8 mi Calm Calm - 0.02 in Rain Light Rain
6:45 PM 62.6 °F 60.8 °F 94% 30.12 in 1.5 mi Calm Calm - 0.03 in Rain Light Rain
6:54 PM 62.1 °F 61.0 °F 96% 30.11 in 1.0 mi Calm Calm - 0.03 in Rain Light Rain
7:04 PM 62.6 °F 60.8 °F 94% 30.12 in 3.0 mi Calm Calm - 0.00 in Rain Light Rain
7:11 PM 62.6 °F 60.8 °F 94% 30.12 in 2.5 mi Calm Calm - 0.02 in Rain Rain
7:22 PM 62.6 °F 60.8 °F 94% 30.12 in 3.0 mi Calm Calm - 0.02 in Rain Light Rain
7:32 PM 62.6 °F 60.8 °F 94% 30.11 in 1.5 mi Calm Calm - 0.03 in Rain Light Rain
7:51 PM 62.6 °F 60.8 °F 94% 30.11 in 2.0 mi Calm Calm - 0.03 in   Overcast
7:54 PM 62.1 °F 61.0 °F 96% 30.10 in 2.5 mi Calm Calm - 0.03 in   Overcast
8:05 PM 62.6 °F 60.8 °F 94% 30.11 in 3.0 mi Calm Calm - N/A   Overcast
8:13 PM 62.6 °F 62.6 °F 100% 30.11 in 1.5 mi Calm Calm - N/A   Overcast
8:26 PM 62.6 °F 60.8 °F 94% 30.11 in 0.8 mi Calm Calm - N/A   Overcast
8:36 PM 62.6 °F 60.8 °F 94% 30.10 in 2.5 mi East 3.5 mph - N/A   Overcast
8:43 PM 62.6 °F 60.8 °F 94% 30.11 in 4.0 mi ESE 3.5 mph - N/A   Overcast
8:54 PM 62.1 °F 61.0 °F 96% 30.10 in 4.0 mi Calm Calm - N/A   Overcast
9:12 PM 60.8 °F 60.8 °F 100% 30.11 in 2.5 mi WNW 9.2 mph - N/A   Overcast
9:27 PM 62.6 °F 62.6 °F 100% 30.12 in 6.0 mi NNW 4.6 mph - N/A   Overcast
9:37 PM 62.6 °F 60.8 °F 94% 30.12 in 6.0 mi NNW 10.4 mph - N/A   Overcast
9:54 PM 57.9 °F 55.9 °F 93% 30.12 in 10.0 mi NNW 8.1 mph 16.1 mph N/A   Overcast
10:54 PM 57.0 °F 55.0 °F 93% 30.13 in 10.0 mi NNW 8.1 mph - N/A   Overcast
11:54 PM 53.1 °F 51.1 °F 93% 30.15 in 10.0 mi NNE 12.7 mph - N/A   Overcast